Weather Roundup
Issued by NWS Corpus Christi, TX

Home | Current Version | Previous Version | Text Only | Print | Product List | Glossary On
Versions: 1 2 3 4 5 6 7 8 9 10 11 12 13 14 15 16 17 18 19 20 21 22 23 24 25 26 27 28 29 30 31 32 33 34 35 36 37 38 39 40 41 42 43 44 45 46 47 48 49 50
164
ASUS44 KCRP 301010
HRRCRP

SOUTH TEXAS REGIONAL WEATHER ROUNDUP
NATIONAL WEATHER SERVICE CORPUS CHRISTI TX
500 AM CDT SUN APR 30 2017


TXZ229>244-301100-
...CORPUS CHRISTI AREA OBSERVATIONS...

CITY           SKY/WX    TMP DP  RH WIND       PRES   REMARKS
CORPUS CHRISTI CLOUDY    65  55  70 N10       29.84R
NAS CORPUS CHR NOT AVBL
ROCKPORT       CLOUDY    66  53  63 N12G22    29.84R
ALICE          CLOUDY    68  46  45 N9        29.87R
ORANGE GROVE   CLOUDY    68  45  43 N14       29.89R
FALFURRIAS     CLOUDY    70  43  37 N12G17    29.84F
$$

...VICTORIA AREA OBSERVATIONS...

CITY           SKY/WX    TMP DP  RH WIND       PRES   REMARKS
VICTORIA       CLOUDY    62  56  80 NW7       29.82F
BEEVILLE       CLOUDY    65  48  55 NW8       29.87R
PLEASANTON     CLOUDY    58  51  77 NW6       29.90F
SAN ANTONIO    LGT RAIN  56  50  80 NW7       29.89S
$$

...LAREDO AREA OBSERVATIONS...

CITY           SKY/WX    TMP DP  RH WIND       PRES   REMARKS
LAREDO         CLOUDY    69  36  29 NW16G23   29.91S
COTULLA        CLOUDY    66  39  37 CALM      29.92R
DEL RIO        CLEAR     56  37  49 NW17G28   30.00R
MCALLEN        CLOUDY    75  42  30 N14       29.87R
HEBBRONVILLE   CLOUDY    69  32  25 N12G18    29.89S
$$

...OTHER TEXAS OBSERVATIONS...

CITY           SKY/WX    TMP DP  RH WIND       PRES   REMARKS
BROWNSVILLE    MOCLDY    72  50  45 N16G24    29.83R
HOUSTON        CLOUDY    63  50  62 NW10      29.79F
COL. STATION   RAIN      56  53  90 NW9G22    29.85R
AUSTIN         TSTM      58  51  78 W7        29.84F
WACO           CLOUDY    53  50  89 W8        29.85R
FORT WORTH     CLOUDY    53  45  74 W20G28    29.74F
WICHITA FALLS  MOCLDY    42  37  82 SW14G23   29.73F
LUBBOCK        PTCLDY    36  32  85 NW25G31   29.88F WCI  24
EL PASO        PTCLDY    42  33  70 SE6       30.08R
$$

...MARINE OBSERVATIONS...

STATION/POSITION TIME  SKY/WX   TEMP    WIND        PRES    VSBY  WAVE   SWELL
                                AIR SEA DIR/SP/G                  HT/PER HT/PER
                 (UTC)          (F)     (DEG/KT/KT) (MB)    (MI)  (FT/S) (FT/S)
PORT ARANSAS     0900            68 77  360/ 21/ 26 1008.9F
BUOY 90 E PORT A 0950            71 77  340/ 27/ 33 1007.1R         8/10   7/10
BUOY 45 SE BAFFI 0950            73     360/ 31/ 41 1006.7F        11/10   7/10
BUOY 200 E PT IS 0950            82 79  170/ 19/ 25 1004.6R        13/ 9   8/ 9
BUOY 15 E GALVES 0950            67 76  320/ 27/ 35 1007.8R         7/ 9   5/ 9
$$




USA.gov is the U.S. government's official web portal to all federal, state and local government web resources and services.